Change the Weather History Date:

Friday, March 21, 2014

  Actual Average Record
Temperature  
Mean Temperature 33 °F 39 °F  
Max Temperature 39 °F 53 °F 75 °F (2009)
Min Temperature 26 °F 25 °F 5 °F (2002)
Degree Days  
Heating Degree Days 32 26  
Month to date heating degree days 647 628  
Since 1 July heating degree days 6534 6599  
Cooling Degree Days 0 0  
Month to date cooling degree days 0 0  
Year to date cooling degree days 0 0  
Moisture  
Dew Point 14 °F    
Average Humidity 46    
Maximum Humidity 63    
Minimum Humidity 29    
Precipitation  
Precipitation 0.00 in 0.02 in 0.03 in (2005)
Month to date precipitation 0.07 0.23  
Year to date precipitation 0.33 0.64  
Sea Level Pressure  
Sea Level Pressure 30.20 in    
Wind  
Wind Speed 15 mph (NNW)    
Max Wind Speed 26 mph    
Max Gust Speed 32 mph    
Visibility 10 miles    
Events      
T = Trace of Precipitation, MM = Missing Value Source: NWS Daily Summary

Daily Weather History Graph

Daily Weather History Graph

Search for Another Location

Airport or City:

Trip Planner

Search our weather history database for the weather conditions in past years. The results will help you decide how hot, cold, wet, or windy it might be!

Date:

Astronomy

Mar. 21, 2014 Rise Set
Actual Time 7:13 AM MDT 7:26 PM MDT
Civil Twilight 6:44 AM MDT 7:55 PM MDT
Nautical Twilight 6:10 AM MDT 8:29 PM MDT
Astronomical Twilight 5:35 AM MDT 9:04 PM MDT
Moon No Moon Rise 9:57 AM MDT (3/21)
Length of Visible Light 13h 10m
Length of Day
12h 12m
Waning Gibbous, 75% of the Moon is Illuminated
Mar 21
Waning Gibbous
Mar 23
Last Quarter
Mar 30
New
Apr 7
First Quarter
Apr 15
Full

Hourly Weather History & Observations

Time (MDT) Temp. Windchill Dew Point Humidity Pressure Visibility Wind Dir Wind Speed Gust Speed Precip Events Conditions
12:53 AM 36.0 °F 25.3 °F 7.0 °F 30% 30.02 in 10.0 mi NNW 19.6 mph - N/A   Overcast
1:53 AM 35.1 °F 24.5 °F 7.0 °F 31% 30.03 in 10.0 mi NNW 18.4 mph - N/A   Overcast
2:53 AM 34.0 °F 25.0 °F 10.9 °F 38% 30.05 in 10.0 mi NNW 12.7 mph 24.2 mph N/A   Overcast
3:53 AM 33.1 °F 22.2 °F 12.9 °F 43% 30.07 in 10.0 mi North 17.3 mph - N/A   Overcast
4:53 AM 32.0 °F 23.0 °F 16.0 °F 52% 30.12 in 10.0 mi NNW 11.5 mph - N/A   Overcast
5:53 AM 30.0 °F 18.3 °F 17.1 °F 59% 30.16 in 10.0 mi NW 17.3 mph - N/A   Overcast
6:53 AM 30.0 °F 18.3 °F 18.0 °F 61% 30.19 in 10.0 mi NW 17.3 mph - N/A   Mostly Cloudy
7:53 AM 30.0 °F 17.9 °F 18.0 °F 61% 30.22 in 10.0 mi NNW 18.4 mph - N/A   Clear
8:53 AM 32.0 °F 20.5 °F 17.1 °F 54% 30.24 in 10.0 mi NNW 18.4 mph - N/A   Clear
9:53 AM 34.0 °F 24.2 °F 15.1 °F 46% 30.25 in 10.0 mi NNW 15.0 mph - N/A   Clear
10:53 AM 35.1 °F 25.2 °F 15.1 °F 44% 30.25 in 10.0 mi NNW 16.1 mph - N/A   Clear
11:53 AM 36.0 °F 26.3 °F 15.1 °F 43% 30.25 in 10.0 mi NW 16.1 mph 23.0 mph N/A   Partly Cloudy
12:53 PM 36.0 °F 26.0 °F 12.9 °F 39% 30.23 in 10.0 mi NNW 17.3 mph 23.0 mph N/A   Clear
1:53 PM 37.9 °F 28.9 °F 12.0 °F 35% 30.21 in 10.0 mi NNW 16.1 mph 20.7 mph N/A   Partly Cloudy
2:53 PM 37.0 °F 30.4 °F 10.9 °F 34% 30.21 in 10.0 mi NNW 9.2 mph - N/A   Overcast
3:53 PM 37.0 °F 29.3 °F 10.9 °F 34% 30.20 in 10.0 mi NNW 11.5 mph - N/A   Overcast
4:53 PM 36.0 °F 27.5 °F 12.0 °F 37% 30.21 in 10.0 mi NNW 12.7 mph - N/A   Overcast
5:53 PM 35.1 °F 24.8 °F 14.0 °F 42% 30.22 in 10.0 mi NNW 17.3 mph - N/A   Overcast
6:53 PM 30.9 °F 19.4 °F 16.0 °F 54% 30.24 in 10.0 mi NNW 17.3 mph - N/A   Overcast
7:53 PM 28.9 °F 16.9 °F 16.0 °F 58% 30.26 in 10.0 mi NNW 17.3 mph - N/A   Overcast
8:53 PM 28.0 °F 16.1 °F 16.0 °F 61% 30.27 in 10.0 mi NW 16.1 mph - N/A   Overcast
9:53 PM 27.0 °F 14.7 °F 16.0 °F 63% 30.27 in 10.0 mi NW 16.1 mph 21.9 mph N/A   Overcast
10:53 PM 27.0 °F 15.6 °F 15.1 °F 61% 30.28 in 10.0 mi NNW 13.8 mph - N/A   Overcast
11:53 PM 26.1 °F 16.8 °F 15.1 °F 63% 30.28 in 10.0 mi NW 9.2 mph - N/A   Overcast